Tracking 19909 objects as of 21-Oct-2019
HD Live streaming from Space Station
objects crossing your sky now

CZ-4 DEB

Track CZ-4 DEB now!
10-day predictions


NORAD ID: 26286
Int'l Code: 1999-057FY
Perigee: 676.4 km
Apogee: 781.3 km
Inclination: 98.5 °
Period: 99.2 minutes
Semi major axis: 7099 km
RCS: 0.0126 m2 (small)
Launch date: October 14, 1999
Source: People's Republic of China (PRC)
Launch site: Taiyaun Space Center, China (TSC)

Note: This is SATELLITE DEBRIS
aabbcc
Your satellite tracking list
Your tracking list is empty




NASA's NSSDC Master Catalog

Two Line Element Set (TLE):
1 26286U 99057FY  19292.92899500  .00000271  00000-0  77854-4 0  9994
2 26286  98.5230 278.2674 0073867 153.9625 236.3523 14.51204806 33462
Source of the keplerian elements: AFSPC